"Time","Temp","Dewpoint","Humidity","Pressure","Direction","Speed","Gust","Precip","PrecipRate"
"00:04:55","26.6","25.1","94","29.94","341","2.5","7","0.00","0.00"
"00:09:58","26.5","25","94","29.93","333","2.9","8","0.00","0.00"
"00:14:58","26.5","25","94","29.93","343","2.9","9","0.00","0.00"
"00:19:56","26.5","25","94","29.93","343","2.6","5","0.00","0.00"
"00:24:59","26.5","25","94","29.93","349","1.7","5","0.00","0.00"
"00:29:59","26.5","25","94","29.93","336","2.6","6","0.00","0.00"
"00:34:59","26.4","24.9","94","29.93","342","2.4","5","0.00","0.00"
"00:39:56","26.4","24.9","94","29.93","338","3.8","10.4","0.00","0.00"
"00:44:56","26.4","24.9","94","29.93","342","3.2","9.2","0.00","0.00"
"00:49:58","26.3","24.8","94","29.92","333","3.2","8","0.00","0.00"
"00:54:58","26.3","24.8","94","29.92","337","3.3","11","0.00","0.00"
"00:59:59","26.3","24.8","94","29.92","342","3.1","9","0.00","0.00"
"01:04:55","26.3","24.8","94","29.92","353","3.2","10.4","0.00","0.00"
"01:09:59","26.3","24.8","94","29.91","340","3.7","10.4","0.00","0.00"
"01:14:58","26.3","24.8","94","29.91","336","3.2","10","0.00","0.00"
"01:19:56","26.3","24.8","94","29.91","337","3.7","8","0.00","0.00"
"01:24:59","26.3","24.8","94","29.91","329","3.3","11","0.00","0.00"
"01:29:56","26.3","24.8","94","29.91","336","3.9","13","0.00","0.00"
"01:34:59","26.3","24.8","94","29.91","337","3.4","6","0.00","0.00"
"01:39:58","26.3","24.8","94","29.91","342","3.5","7","0.00","0.00"
"01:44:59","26.3","24.8","94","29.91","352","4.9","12","0.00","0.00"
"01:49:57","26.3","24.8","94","29.91","337","4.1","7","0.00","0.00"
"01:54:57","26.2","24.7","94","29.91","347","4.2","10.4","0.00","0.00"
"01:59:58","26.2","24.7","94","29.91","343","4.8","12","0.00","0.00"
"02:04:58","26.1","24.6","94","29.90","351","3.5","12","0.00","0.00"
"02:09:58","26.1","24.6","94","29.90","344","4.2","12","0.00","0.00"
"02:14:58","26","24.5","93.8","29.90","341","4.4","12","0.00","0.00"
"02:19:56","26","24.3","93","29.90","336","5.5","16.1","0.00","0.00"
"02:24:56","25.9","24.2","93","29.90","347","4.6","12","0.00","0.00"
"02:29:57","25.8","24.1","93","29.90","349","4.9","14","0.00","0.00"
"02:34:58","25.8","24.1","93","29.89","346","4","12","0.00","0.00"
"02:39:59","25.7","24","93","29.89","352","3.8","10.4","0.00","0.00"
"02:44:59","25.7","24","93","29.89","342","6","12","0.00","0.00"
"02:49:57","25.6","23.9","93","29.89","349","4.4","13","0.00","0.00"
"02:54:56","25.6","23.9","93","29.89","331","4.2","13","0.00","0.00"
"02:59:57","25.6","23.9","93","29.89","346","4.5","14","0.00","0.00"
"03:04:58","25.6","23.9","93","29.89","335","4.5","14","0.00","0.00"
"03:09:58","25.6","23.9","93","29.89","1","3.7","12","0.00","0.00"
"03:14:57","25.6","23.9","93","29.89","338","4.4","12","0.00","0.00"
"03:19:56","25.5","23.8","93","29.89","346","4.6","12","0.00","0.00"
"03:24:59","25.5","23.8","93","29.88","359","4.4","15","0.00","0.00"
"03:29:59","25.5","23.8","93","29.88","327","3.7","9.2","0.00","0.00"
"03:34:55","25.4","23.7","93","29.88","1","3.7","13","0.00","0.00"
"03:39:57","25.4","23.7","93","29.88","344","2.8","7","0.00","0.00"
"03:44:57","25.4","23.7","93","29.88","342","3.9","9.2","0.00","0.00"
"03:49:56","25.5","23.8","93","29.88","341","3.7","12","0.00","0.00"
"03:54:56","25.5","23.8","93","29.88","339","4.3","9.2","0.00","0.00"
"03:59:57","25.5","23.8","93","29.88","358","4","10.4","0.00","0.00"
"04:04:58","25.6","23.9","93","29.88","358","3.6","9.2","0.00","0.00"
"04:09:57","25.6","23.9","93","29.88","352","4","10.4","0.00","0.00"
"04:14:57","25.6","23.9","93","29.88","346","3.7","11","0.00","0.00"
"04:19:56","25.7","24","93","29.88","347","5","13","0.00","0.00"
"04:24:57","25.7","24","93","29.88","343","3.6","12","0.00","0.00"
"04:29:58","25.7","24","93","29.88","336","3.7","12","0.00","0.00"
"04:34:59","25.7","24","93","29.87","344","3.7","11","0.00","0.00"
"04:39:56","25.8","24.1","93","29.87","348","4.1","12","0.00","0.00"
"04:44:56","25.8","24.1","93","29.87","358","3.6","10","0.00","0.00"
"04:49:56","25.8","24.1","93","29.87","356","4.7","11","0.00","0.00"
"04:54:59","25.8","24.1","93","29.87","335","3.7","9.2","0.00","0.00"
"04:59:56","25.8","24.1","93","29.87","350","3","7","0.00","0.00"
"05:04:57","25.9","24.2","93","29.87","347","4","10.4","0.00","0.00"
"05:09:57","25.9","24.2","93","29.87","356","3.4","10","0.00","0.00"
"05:14:56","26","24.3","93","29.87","357","2.9","10.4","0.00","0.00"
"05:19:58","26","24.3","93","29.87","351","2.9","7","0.00","0.00"
"05:24:58","26.1","24.4","93","29.87","354","2.3","7","0.00","0.00"
"05:29:59","26.1","24.4","93","29.87","343","3","7","0.00","0.00"
"05:34:59","26.2","24.5","93","29.87","344","2.6","9","0.00","0.00"
"05:39:57","26.3","24.6","93","29.87","353","3.5","8.1","0.00","0.00"
"05:44:57","26.3","24.6","93","29.87","340","3.8","10","0.00","0.00"
"05:49:56","26.5","24.8","93.3","29.87","347","4.2","14","0.00","0.00"
"05:54:56","26.7","24.9","93","29.87","348","3.5","13","0.00","0.00"
"05:59:57","26.7","24.9","93","29.87","10","3.4","14","0.00","0.00"
"06:04:57","26.8","25","93","29.87","344","3.7","11.5","0.00","0.00"
"06:09:58","26.8","25","93","29.87","346","3","12","0.00","0.00"
"06:14:58","27","25.3","93.4","29.87","345","2.6","8","0.00","0.00"
"06:19:57","27.1","25.5","93.6","29.87","344","3.3","9","0.00","0.00"
"06:24:57","27.2","25.4","93.3","29.87","356","3.3","9.2","0.00","0.00"
"06:29:58","27.2","25.5","93.6","29.88","349","3.5","10","0.00","0.00"
"06:34:58","27.1","25.3","93","29.88","353","3.1","10.4","0.00","0.00"
"06:39:56","27.1","25.3","93","29.88","354","3.7","11","0.00","0.00"
"06:44:56","27","25.2","93","29.88","343","3.6","9.2","0.00","0.00"
"06:49:56","27","25.3","93.2","29.87","337","4.2","12","0.00","0.00"
"06:54:56","27","25.2","93","29.87","341","4.2","12","0.00","0.00"
"06:59:59","26.9","25.1","93","29.87","341","3.9","9.2","0.00","0.00"
"07:04:56","26.9","25.1","93","29.87","333","2.7","7","0.00","0.00"
"07:09:56","26.8","25","93","29.87","344","4.1","10.4","0.00","0.00"
"07:14:57","26.7","24.9","93","29.87","333","3.2","10","0.00","0.00"
"07:19:56","26.6","24.8","92.9","29.87","341","4.1","10","0.00","0.00"
"07:24:57","26.5","24.8","93","29.87","330","4.2","7","0.00","0.00"
"07:29:59","26.5","24.8","93","29.87","340","3.9","10","0.00","0.00"
"07:34:56","26.5","24.8","93","29.87","341","3.2","7","0.00","0.00"
"07:39:59","26.6","24.8","93","29.87","342","3.8","10.4","0.00","0.00"
"07:44:58","26.7","25","93.4","29.87","331","4.4","10","0.00","0.00"
"07:49:57","26.6","24.8","93","29.87","335","5.1","10.4","0.00","0.00"
"07:54:58","26.6","24.8","93","29.87","338","4.4","10.4","0.00","0.00"
"07:59:59","26.6","24.8","93","29.87","338","4.2","9.2","0.00","0.00"
"08:04:56","26.6","24.8","93.1","29.87","349","3.5","9.2","0.00","0.00"
"08:09:59","26.7","24.9","93.2","29.87","331","4.8","9","0.00","0.00"
"08:14:58","26.7","25","93.3","29.87","334","4.4","10","0.00","0.00"
"08:19:56","26.8","25.1","93.5","29.87","327","3.9","10.4","0.00","0.00"
"08:24:58","26.9","25.3","93.9","29.87","339","4.5","10.4","0.00","0.00"
"08:29:55","27","25.5","94","29.87","346","4","10.4","0.00","0.00"
"08:34:56","27","25.3","93.2","29.87","339","4.5","10","0.00","0.00"
"08:39:58","27","25.2","93","29.87","332","5.4","12","0.00","0.00"
"08:44:58","27.1","25.3","93","29.87","340","3.3","6","0.00","0.00"
"08:49:57","27.1","25.3","93","29.87","334","3.6","10.4","0.00","0.00"
"08:54:59","27.2","25.4","93","29.87","338","4.3","11","0.00","0.00"
"08:59:57","27.2","25.4","93","29.87","336","3","9","0.00","0.00"
"09:04:57","27.3","25.5","93","29.87","344","4.5","9.2","0.00","0.00"
"09:09:56","27.3","25.5","93","29.87","340","3.9","9.2","0.00","0.00"
"09:14:57","27.4","25.6","93","29.87","337","3.7","9","0.00","0.00"
"09:19:59","27.5","25.7","93","29.87","337","4","9","0.00","0.00"
"09:24:59","27.6","25.8","93","29.86","344","4.2","10.4","0.00","0.00"
"09:29:56","27.6","25.8","93","29.86","340","4.3","10.4","0.00","0.00"
"09:34:57","27.7","25.9","93","29.86","342","3.1","10","0.00","0.00"
"09:39:59","27.8","26","93","29.86","340","4.3","10.4","0.00","0.00"
"09:44:58","27.9","26.1","93","29.86","343","3.8","6","0.00","0.00"
"09:49:56","28","26.2","93","29.86","340","3.9","10.4","0.00","0.00"
"09:54:56","28.1","26.3","93","29.86","337","4.2","9.2","0.00","0.00"
"09:59:57","28.1","26.3","93","29.86","347","4.1","10.4","0.00","0.00"
"10:04:58","28.1","26.3","93","29.86","352","3.5","13","0.00","0.00"
"10:09:58","28.1","26.3","93","29.86","338","5","13","0.00","0.00"
"10:14:57","28.1","26.3","93","29.86","338","3.9","12","0.00","0.00"
"10:19:56","28.2","26.4","93","29.85","341","4.6","10.4","0.00","0.00"
"10:24:58","28.2","26.4","93","29.85","342","3.2","6","0.00","0.00"
"10:29:56","28.3","26.5","93","29.85","338","3.7","9.2","0.00","0.00"
"10:34:59","28.3","26.5","93","29.85","331","3.9","8.1","0.00","0.00"
"10:39:56","28.3","26.5","93","29.85","350","4","9","0.00","0.00"
"10:44:59","28.3","26.5","93","29.85","333","4.8","9.2","0.00","0.00"
"10:49:57","28.3","26.5","93","29.85","340","4.5","10.4","0.00","0.00"
"10:54:56","28.5","26.7","93","29.85","332","3.3","6","0.00","0.00"
"10:59:57","28.5","26.7","93","29.85","340","4.4","10.4","0.00","0.00"
"11:04:58","28.6","26.8","93","29.85","336","4.1","7","0.00","0.00"
"11:09:59","28.7","26.9","93","29.85","334","4.6","13","0.00","0.00"
"11:14:58","28.7","26.9","93","29.85","340","3.9","13","0.00","0.00"
"11:19:58","28.8","27","93","29.85","347","4.6","10.4","0.00","0.00"
"11:24:58","29","27.2","93","29.85","346","4.5","10.4","0.00","0.00"
"11:29:59","29","27.2","93","29.85","346","5.2","12","0.00","0.00"
"11:34:55","29.1","27.3","93","29.85","345","4.4","11","0.00","0.00"
"11:39:58","29.2","27.4","93","29.85","341","3.9","7","0.00","0.00"
"11:44:58","29.3","27.5","93","29.85","354","4.4","12","0.00","0.00"
"11:49:58","29.3","27.5","93","29.84","338","5.6","12","0.00","0.00"
"11:54:57","29.4","27.6","93","29.84","340","4.1","11","0.00","0.00"
"11:59:58","29.5","27.7","93","29.84","339","4.6","12","0.00","0.00"
"12:04:58","29.7","27.9","93","29.84","338","4.2","12","0.00","0.00"
"12:09:59","29.8","28","93","29.83","338","4.8","11.5","0.00","0.00"
"12:14:59","30","28.2","93","29.83","338","4.3","12","0.00","0.00"
"12:19:58","30.1","28.3","93","29.83","335","4.8","12","0.00","0.00"
"12:24:57","30.1","28.3","93","29.83","337","5.2","12","0.00","0.00"
"12:29:58","30.2","28.4","93","29.83","326","3.9","10","0.00","0.00"
"12:34:59","30.2","28.4","93","29.82","356","5","12","0.00","0.00"
"12:39:57","30.2","28.4","93","29.82","337","4.1","12","0.00","0.00"
"12:44:56","30.3","28.5","93","29.82","334","4.4","13","0.00","0.00"
"12:49:59","30.3","28.4","92.7","29.82","340","6.3","13","0.00","0.00"
"12:54:57","30.3","28.4","92.6","29.82","334","5.7","13","0.00","0.00"
"12:59:58","30.4","28.5","92.7","29.82","330","4.6","13","0.00","0.00"
"13:04:59","30.6","28.8","93","29.81","338","4.1","9.2","0.01","0.01"
"13:09:59","30.6","28.6","92.3","29.80","330","5.1","12","0.01","0.01"
"13:14:59","30.5","28.5","92","29.80","345","5.8","13","0.01","0.01"
"13:19:58","30.5","28.4","91.8","29.80","336","5.7","13","0.01","0.01"
"13:24:58","30.5","28.5","92.1","29.80","333","4.1","7","0.01","0.01"
"13:29:59","30.6","28.7","92.6","29.80","333","4","10","0.01","0.01"
"13:34:58","30.6","28.6","92.2","29.80","337","3.7","9","0.01","0.01"
"13:39:56","30.6","28.7","92.5","29.80","356","3.2","9.2","0.01","0.01"
"13:44:59","30.6","28.6","92.2","29.80","342","4.4","10.4","0.01","0.01"
"13:49:57","30.6","28.6","92","29.80","332","4.1","7","0.01","0.01"
"13:54:56","30.6","28.6","92","29.80","337","4.4","9","0.01","0.01"
"13:59:58","30.6","28.6","92","29.80","341","4.6","10.4","0.01","0.01"
"14:04:58","30.6","28.6","92","29.80","338","4","11.5","0.01","0.01"
"14:09:58","30.6","28.6","92","29.79","342","6.6","15","0.01","0.00"
"14:14:57","30.6","28.6","92","29.79","324","4.3","15","0.01","0.00"
"14:19:56","30.6","28.6","92","29.79","338","4.8","12","0.01","0.00"
"14:24:59","30.6","28.6","92","29.79","338","5.6","12","0.01","0.00"
"14:29:56","30.6","28.6","92","29.79","325","5.1","14","0.01","0.00"
"14:34:59","30.6","28.6","92","29.79","331","3.7","10","0.01","0.00"
"14:39:57","30.6","28.6","92","29.79","339","5.1","12","0.01","0.00"
"14:44:56","30.6","28.6","92","29.79","326","5.6","12","0.01","0.00"
"14:49:58","30.6","28.6","92","29.79","334","5.4","12","0.01","0.00"
"14:54:57","30.7","28.7","92","29.78","347","5.9","15","0.01","0.00"
"14:59:58","30.8","28.8","92","29.79","329","3.7","10.4","0.01","0.00"
"15:04:58","30.9","28.9","92","29.79","338","4.2","12","0.01","0.00"
"15:09:58","31","28.8","91.5","29.79","333","4","12","0.01","0.00"
"15:14:57","31.2","28.9","91.2","29.79","346","5.3","13","0.01","0.00"
"15:19:57","31.3","29.1","91.6","29.79","351","4","8.1","0.01","0.00"
"15:24:56","31.4","29.2","91.7","29.79","335","4","12","0.01","0.00"
"15:29:58","31.3","28.9","90.8","29.79","334","5.8","14","0.01","0.00"
"15:34:59","31.1","28.8","91","29.79","334","5","13","0.01","0.00"
"15:39:57","31.1","28.8","91","29.79","332","4.3","10.4","0.01","0.00"
"15:44:58","31.1","28.8","91","29.79","332","6.2","14","0.01","0.00"
"15:49:58","31","28.7","91","29.79","332","5.5","14","0.01","0.00"
"15:54:58","30.9","28.6","91.1","29.79","332","4.8","11","0.01","0.00"
"15:59:56","30.8","28.8","92","29.79","332","3.4","10.4","0.01","0.00"
"16:04:57","30.8","28.8","92","29.79","332","4","9.2","0.01","0.00"
"16:09:58","30.8","28.8","92","29.79","332","3.2","9.2","0.01","0.00"
"16:14:58","30.8","28.8","92.1","29.79","332","3.5","6","0.01","0.00"
"16:19:57","30.7","28.7","92.2","29.79","332","4.1","9.2","0.01","0.00"
"16:24:58","30.6","28.6","92","29.79","332","4.5","10.4","0.01","0.00"
"16:29:56","30.6","28.6","92","29.79","332","4.6","12","0.01","0.00"
"16:34:57","30.6","28.6","92","29.79","332","3.9","10.4","0.01","0.00"
"16:39:56","30.6","28.8","92.9","29.79","332","3.4","11","0.01","0.00"
"16:44:57","30.6","28.7","92.7","29.79","332","3.9","9.2","0.01","0.00"
"16:49:56","30.6","28.8","92.8","29.79","332","3.1","7","0.01","0.00"
"16:54:57","30.6","28.6","92.3","29.79","332","3.7","10.4","0.01","0.00"
"16:59:59","30.5","28.5","92","29.80","332","3.4","10","0.01","0.00"
"17:04:56","30.5","28.5","92.2","29.80","332","3.6","11","0.01","0.00"
"17:09:56","30.5","28.5","92","29.80","332","3.8","12","0.01","0.00"
"17:14:56","30.4","28.6","92.9","29.80","332","3.6","9.2","0.01","0.00"
"17:19:56","30.3","28.5","93","29.80","332","4.1","7","0.01","0.00"
"17:24:59","30.3","28.5","93","29.80","332","3.4","6","0.01","0.00"
"17:29:57","30.1","28.3","93","29.80","332","3.4","9.2","0.01","0.00"
"17:34:57","30.1","28.5","93.7","29.80","332","3.9","9.2","0.01","0.00"
"17:39:59","30.1","28.6","94","29.80","332","4.3","12","0.01","0.00"
"17:44:59","30","28.5","94","29.80","332","4.1","8.1","0.01","0.00"
"17:49:58","30","28.5","94","29.80","332","3.5","6","0.01","0.00"
"17:54:57","30","28.5","94","29.80","332","3.4","7","0.01","0.00"
"17:59:56","29.9","28.4","94","29.80","332","3.2","7","0.01","0.00"
"18:04:57","29.9","28.4","94","29.80","332","3.7","12","0.01","0.00"
"18:09:58","29.8","28.3","94","29.80","332","3.5","12","0.01","0.00"
"18:14:59","29.8","28.3","94","29.80","332","4.4","9.2","0.01","0.00"
"18:19:58","29.8","28.4","94.7","29.80","332","3.5","7","0.01","0.00"
"18:24:57","29.8","28.5","95","29.80","332","4.8","12","0.01","0.00"
"18:29:59","29.7","28.4","95","29.80","332","4.3","8.1","0.01","0.00"
"18:34:58","29.7","28.4","95","29.80","332","3.4","9","0.01","0.00"
"18:39:56","29.7","28.4","95","29.79","332","3.2","7","0.01","0.00"
"18:44:56","29.7","28.4","95","29.79","332","3.7","8.1","0.01","0.00"
"18:49:56","29.7","28.4","95","29.79","332","3.7","11","0.01","0.00"
"18:54:56","29.7","28.4","95","29.79","332","3.6","7","0.01","0.00"
"18:59:57","29.7","28.4","95","29.79","332","3.3","7","0.01","0.00"
"19:04:58","29.7","28.4","95","29.79","332","3.8","7","0.01","0.00"
"19:09:59","29.7","28.2","94","29.79","332","5.1","12","0.01","0.00"
"19:14:59","29.8","28.3","94","29.79","332","4.6","12","0.01","0.00"
"19:19:58","29.8","28.3","94","29.79","332","4.4","10.4","0.01","0.00"
"19:24:58","29.8","28.3","94","29.78","332","3.4","7","0.01","0.00"
"19:29:59","29.9","28.4","94","29.78","332","3","6","0.01","0.00"
"19:34:59","29.9","28.4","94","29.78","332","3.5","9","0.01","0.00"
"19:39:57","30","28.5","94","29.78","332","3.8","7","0.01","0.00"
"19:44:56","30.1","28.6","94","29.78","332","4.2","7","0.01","0.00"
"19:49:56","30.2","28.6","93.9","29.78","332","3.7","7","0.01","0.00"
"19:54:56","30.3","28.5","93","29.77","332","3.7","10","0.01","0.00"
"19:59:58","30.3","28.5","93","29.77","332","4.1","10.4","0.01","0.00"
"20:04:59","30.4","28.6","93","29.77","332","4.4","9.2","0.01","0.00"
"20:09:59","30.5","28.7","93","29.77","332","4.5","12","0.01","0.00"
"20:14:56","30.5","28.7","93","29.77","332","3.7","12","0.01","0.00"
"20:19:56","30.6","28.8","93","29.77","332","4.3","14","0.01","0.00"
"20:24:57","30.7","28.9","93","29.77","332","4.4","14","0.01","0.00"
"20:29:59","30.8","29","93","29.77","332","5.4","14","0.01","0.00"
"20:34:59","30.9","29","92.5","29.77","332","4.3","11","0.01","0.00"
"20:39:58","30.9","28.9","92","29.77","332","4.6","10","0.01","0.00"
"20:44:58","30.9","28.9","92","29.77","332","5.1","12","0.01","0.00"
"20:49:57","31","28.9","92","29.76","332","5","12","0.01","0.00"
"20:54:57","31","28.9","92","29.76","332","4.5","10.4","0.01","0.00"
"20:59:56","31","28.9","92","29.76","332","4.3","10.4","0.01","0.00"
"21:04:56","31","28.9","92","29.76","332","4.2","10.4","0.01","0.00"
"21:09:58","31","28.9","92","29.76","332","4.4","10","0.01","0.00"
"21:14:57","31","28.9","92","29.76","332","4.3","9","0.01","0.00"
"21:19:57","31.1","29","92","29.76","332","4.4","9","0.01","0.00"
"21:24:58","31.1","29","92","29.76","332","5","10.4","0.01","0.00"
"21:29:57","31.1","29","92","29.76","332","4.1","7","0.01","0.00"
"21:34:58","31.1","29","92","29.75","332","4.2","10","0.01","0.00"
"21:39:57","31.1","29","92","29.75","332","4.4","7","0.01","0.00"
"21:44:57","31.2","29.1","92.1","29.75","332","4.7","11","0.01","0.00"
"21:49:58","31.2","29.1","92","29.75","332","5.7","12","0.01","0.00"
"21:54:58","31.3","29.2","92","29.74","323","5.3","12","0.01","0.00"
"21:59:57","31.4","29.3","92","29.74","318","5.1","11","0.01","0.00"
"22:04:57","31.3","29.2","92","29.74","328","5.1","9.2","0.01","0.00"
"22:09:58","31.3","29.2","92","29.74","329","5.1","13","0.01","0.00"
"22:14:58","31.3","29.3","92.2","29.74","329","4.8","13","0.01","0.00"
"22:19:57","31.4","29.5","92.7","29.74","320","4.9","10.4","0.01","0.00"
"22:24:57","31.4","29.6","92.9","29.74","334","5.8","12","0.01","0.00"
"22:29:59","31.4","29.6","93","29.74","327","4.9","10","0.01","0.00"
"22:34:59","31.5","29.5","92.6","29.74","328","5.6","12","0.01","0.00"
"22:39:58","31.5","29.4","92","29.73","331","5.5","16.1","0.01","0.00"
"22:44:58","31.6","29.5","92","29.73","330","5.6","13","0.01","0.00"
"22:49:57","31.6","29.5","92","29.73","328","4.1","12","0.01","0.00"
"22:54:57","31.5","29.4","92","29.73","326","3.3","10.4","0.01","0.00"
"22:59:59","31.5","29.4","92","29.73","322","4.6","10.4","0.01","0.00"
"23:04:59","31.6","29.5","92","29.73","315","4","7","0.01","0.00"
"23:09:55","31.6","29.5","92","29.73","334","4.2","10.4","0.01","0.00"
"23:14:56","31.6","29.5","92","29.73","344","3.8","10","0.01","0.00"
"23:19:56","31.7","29.6","92","29.72","333","3.5","9","0.01","0.00"
"23:24:56","31.7","29.6","92.2","29.72","324","4.7","12","0.01","0.00"
"23:29:59","31.7","29.6","92","29.72","331","6.1","12","0.01","0.00"
"23:34:56","31.8","29.7","92","29.72","328","4.7","12","0.01","0.00"
"23:39:58","31.8","29.7","92","29.71","321","4.7","12","0.01","0.00"
"23:44:58","31.9","29.8","92","29.71","325","5.6","12","0.01","0.00"
"23:49:59","31.9","29.8","92","29.71","325","5","12","0.01","0.00"
"23:54:59","31.9","29.8","92","29.71","315","4.6","9.2","0.01","0.00"
"23:59:58","32","29.9","92","29.71","327","5.4","12","0.01","0.00"
